ELY44 LLBG-LLER

Flight info

Callsign ELY44
Flight time 0h 46m
Altitude 23000
Route TOMAL J10 NURIT
Aircraft B738/M-SDE2E3FGHIJ1LORVWXY/LB1

Departure

Time 2026-04-22 10:26
Airport Ben Gurion International Airport (LLBG)

Arrival

Time 2026-04-22 11:12
Airport Ramon International Airport (LLER)
Time Latitude Longitude Altitude Speed Heading
2026-04-22 09:30 32.00188 34.87848 119 ft 0 kts 121°
2026-04-22 10:10 32.00197 34.87830 116 ft 4 kts 121°
2026-04-22 10:11 32.00211 34.87804 115 ft 3 kts 122°
2026-04-22 10:11 32.00222 34.87784 116 ft 4 kts 134°
2026-04-22 10:11 32.00241 34.87771 114 ft 4 kts 196°
2026-04-22 10:11 32.00245 34.87772 114 ft 4 kts 224°
2026-04-22 10:12 32.00243 34.87772 114 ft 0 kts 211°
2026-04-22 10:17 32.00202 34.87741 119 ft 8 kts 220°
2026-04-22 10:18 32.00189 34.87714 116 ft 4 kts 259°
2026-04-22 10:18 32.00195 34.87676 118 ft 3 kts 302°
2026-04-22 10:18 32.00219 34.87665 118 ft 5 kts 356°
2026-04-22 10:18 32.00249 34.87677 117 ft 2 kts 28°
2026-04-22 10:19 32.00255 34.87681 118 ft 0 kts 30°
2026-04-22 10:20 32.00272 34.87692 118 ft 8 kts 30°
2026-04-22 10:20 32.00353 34.87750 116 ft 19 kts 31°
2026-04-22 10:21 32.00460 34.87827 117 ft 18 kts 31°
2026-04-22 10:21 32.00585 34.87916 119 ft 18 kts 31°
2026-04-22 10:21 32.00640 34.87956 118 ft 0 kts 31°
2026-04-22 10:22 32.00652 34.87964 116 ft 6 kts 31°
2026-04-22 10:22 32.00721 34.88013 115 ft 17 kts 32°
2026-04-22 10:22 32.00845 34.88103 117 ft 25 kts 31°
2026-04-22 10:23 32.01018 34.88228 116 ft 33 kts 32°
2026-04-22 10:23 32.01201 34.88361 117 ft 30 kts 32°
2026-04-22 10:23 32.01352 34.88509 118 ft 28 kts 50°
2026-04-22 10:23 32.01461 34.88713 115 ft 31 kts 67°
2026-04-22 10:24 32.01517 34.88968 116 ft 28 kts 81°
2026-04-22 10:24 32.01581 34.89167 117 ft 17 kts 46°
2026-04-22 10:24 32.01597 34.89176 117 ft 7 kts 12°
2026-04-22 10:24 32.01647 34.89166 115 ft 11 kts 338°
2026-04-22 10:25 32.01737 34.89105 118 ft 13 kts 299°
2026-04-22 10:25 32.01740 34.89052 118 ft 0 kts 257°
2026-04-22 10:26 32.01739 34.89046 117 ft 3 kts 257°
2026-04-22 10:26 32.01692 34.88756 120 ft 83 kts 260°
2026-04-22 10:26 32.01529 34.87712 141 ft 167 kts 259°
2026-04-22 10:26 32.01288 34.86324 1000 ft 179 kts 257°
2026-04-22 10:27 32.01081 34.84729 1917 ft 193 kts 269°
2026-04-22 10:27 32.00755 34.83245 3033 ft 193 kts 233°
2026-04-22 10:27 31.99621 34.82449 3970 ft 197 kts 187°
2026-04-22 10:27 31.98309 34.82838 4610 ft 201 kts 143°
2026-04-22 10:28 31.97504 34.84196 4986 ft 215 kts 115°
2026-04-22 10:28 31.96851 34.85925 5165 ft 243 kts 113°
2026-04-22 10:28 31.96181 34.87786 5721 ft 250 kts 113°
2026-04-22 10:28 31.95501 34.89690 6402 ft 253 kts 113°
2026-04-22 10:29 31.94815 34.91610 7076 ft 255 kts 113°
2026-04-22 10:29 31.94121 34.93546 7722 ft 258 kts 113°
2026-04-22 10:29 31.93417 34.95503 8352 ft 262 kts 113°
2026-04-22 10:29 31.92698 34.97500 8904 ft 270 kts 113°
2026-04-22 10:30 31.91932 34.99618 8949 ft 287 kts 113°
2026-04-22 10:30 31.91148 35.01788 8973 ft 288 kts 113°
2026-04-22 10:30 31.90348 35.03995 8996 ft 305 kts 113°
2026-04-22 10:30 31.89580 35.06113 8990 ft 320 kts 113°
2026-04-22 10:31 31.88702 35.08531 8992 ft 323 kts 113°
2026-04-22 10:31 31.87789 35.11043 8996 ft 341 kts 113°
2026-04-22 10:31 31.86859 35.13600 8996 ft 346 kts 113°
2026-04-22 10:31 31.85897 35.16245 8980 ft 345 kts 113°
2026-04-22 10:32 31.84963 35.18811 8981 ft 345 kts 113°
2026-04-22 10:32 31.84018 35.21403 8979 ft 345 kts 113°
2026-04-22 10:32 31.83074 35.23992 8983 ft 345 kts 113°
2026-04-22 10:32 31.82126 35.26591 8978 ft 345 kts 113°
2026-04-22 10:33 31.81178 35.29184 8984 ft 345 kts 113°
2026-04-22 10:33 31.80229 35.31780 8979 ft 345 kts 113°
2026-04-22 10:33 31.79282 35.34369 8978 ft 344 kts 113°
2026-04-22 10:33 31.78337 35.36951 8976 ft 343 kts 113°
2026-04-22 10:34 31.77394 35.39523 8979 ft 342 kts 113°
2026-04-22 10:34 31.76452 35.42092 8978 ft 342 kts 113°
2026-04-22 10:34 31.75373 35.44576 8968 ft 341 kts 127°
2026-04-22 10:34 31.73627 35.46430 8982 ft 339 kts 150°
2026-04-22 10:35 31.71418 35.47353 8997 ft 338 kts 171°
2026-04-22 10:35 31.69162 35.47376 8992 ft 339 kts 188°
2026-04-22 10:35 31.66829 35.46848 9617 ft 341 kts 193°
2026-04-22 10:35 31.64555 35.46239 10882 ft 331 kts 193°
2026-04-22 10:36 31.62327 35.45659 11982 ft 327 kts 193°
2026-04-22 10:36 31.60084 35.45111 12815 ft 331 kts 191°
2026-04-22 10:36 31.57797 35.44599 13590 ft 337 kts 191°
2026-04-22 10:36 31.55472 35.44093 14367 ft 341 kts 191°
2026-04-22 10:37 31.53130 35.43583 15128 ft 344 kts 191°
2026-04-22 10:37 31.48362 35.42540 16594 ft 353 kts 191°
2026-04-22 10:37 31.45938 35.42007 16922 ft 355 kts 191°
2026-04-22 10:38 31.43507 35.41471 16973 ft 356 kts 191°
2026-04-22 10:38 31.41065 35.40933 16985 ft 356 kts 191°
2026-04-22 10:38 31.38635 35.40397 16991 ft 356 kts 191°
2026-04-22 10:38 31.36198 35.39861 16984 ft 356 kts 191°
2026-04-22 10:39 31.33761 35.39325 16974 ft 356 kts 191°
2026-04-22 10:39 31.31308 35.38917 16982 ft 356 kts 186°
2026-04-22 10:39 31.28841 35.38651 16987 ft 356 kts 185°
2026-04-22 10:39 31.26365 35.38420 16985 ft 356 kts 185°
2026-04-22 10:40 31.23899 35.38183 16976 ft 353 kts 185°
2026-04-22 10:40 31.21409 35.37928 16996 ft 369 kts 185°
2026-04-22 10:40 31.18776 35.37647 17000 ft 388 kts 185°
2026-04-22 10:40 31.16028 35.37351 16992 ft 402 kts 185°
2026-04-22 10:41 31.13226 35.37063 16972 ft 404 kts 185°
2026-04-22 10:41 31.10438 35.36784 16973 ft 401 kts 185°
2026-04-22 10:41 31.07666 35.36507 16979 ft 400 kts 185°
2026-04-22 10:41 31.04893 35.36224 16971 ft 398 kts 185°
2026-04-22 10:42 31.02160 35.35932 16970 ft 393 kts 185°
2026-04-22 10:42 30.99510 35.35647 16966 ft 392 kts 185°
2026-04-22 10:42 30.96784 35.35354 16988 ft 393 kts 186°
2026-04-22 10:42 30.94085 35.34842 16969 ft 394 kts 194°
2026-04-22 10:43 30.91503 35.33800 16987 ft 393 kts 203°
2026-04-22 10:43 30.88984 35.32547 16974 ft 394 kts 204°
2026-04-22 10:43 30.86476 35.31275 16980 ft 394 kts 204°
2026-04-22 10:43 30.83960 35.30003 16968 ft 394 kts 204°
2026-04-22 10:44 30.81443 35.28742 16983 ft 394 kts 203°
2026-04-22 10:44 30.78917 35.27488 16980 ft 394 kts 203°
2026-04-22 10:44 30.76427 35.26260 16984 ft 394 kts 203°
2026-04-22 10:44 30.73903 35.25020 16981 ft 394 kts 203°
2026-04-22 10:45 30.71374 35.23779 16974 ft 394 kts 203°
2026-04-22 10:45 30.68851 35.22542 16983 ft 394 kts 203°
2026-04-22 10:45 30.66329 35.21306 16980 ft 394 kts 203°
2026-04-22 10:45 30.63811 35.20072 16971 ft 394 kts 203°
2026-04-22 10:46 30.61286 35.18836 16978 ft 394 kts 203°
2026-04-22 10:46 30.58759 35.17600 16982 ft 394 kts 203°
2026-04-22 10:46 30.56215 35.16407 16980 ft 394 kts 199°
2026-04-22 10:46 30.53553 35.15637 16986 ft 394 kts 190°
2026-04-22 10:47 30.50847 35.15136 16981 ft 395 kts 189°
2026-04-22 10:47 30.48119 35.14655 16789 ft 397 kts 189°
2026-04-22 10:47 30.45404 35.14168 16522 ft 394 kts 189°
2026-04-22 10:47 30.42701 35.13669 16125 ft 390 kts 189°
2026-04-22 10:48 30.40034 35.13165 15710 ft 388 kts 189°
2026-04-22 10:48 30.37413 35.12664 15295 ft 385 kts 189°
2026-04-22 10:48 30.34738 35.12153 14856 ft 383 kts 189°
2026-04-22 10:48 30.32125 35.11652 14439 ft 377 kts 189°
2026-04-22 10:49 30.29559 35.11154 14020 ft 370 kts 190°
2026-04-22 10:49 30.27037 35.10663 13607 ft 363 kts 190°
2026-04-22 10:49 30.24568 35.10183 13204 ft 357 kts 189°
2026-04-22 10:49 30.22167 35.09716 12804 ft 351 kts 190°
2026-04-22 10:50 30.19775 35.09234 12400 ft 346 kts 190°
2026-04-22 10:50 30.17420 35.08751 12017 ft 341 kts 190°
2026-04-22 10:50 30.15101 35.08275 11637 ft 336 kts 190°
2026-04-22 10:50 30.12809 35.07805 11262 ft 332 kts 190°
2026-04-22 10:51 30.10553 35.07344 10883 ft 325 kts 190°
2026-04-22 10:51 30.08364 35.06899 10514 ft 314 kts 190°
2026-04-22 10:51 30.06248 35.06471 10261 ft 301 kts 190°
2026-04-22 10:51 30.04236 35.06072 10122 ft 286 kts 190°
2026-04-22 10:52 30.02307 35.05693 9980 ft 278 kts 190°
2026-04-22 10:52 30.01051 35.05447 9774 ft 277 kts 190°
2026-04-22 10:52 29.99128 35.05070 9494 ft 275 kts 190°
2026-04-22 10:52 29.97275 35.04707 9218 ft 273 kts 190°
2026-04-22 10:53 29.95400 35.04338 8935 ft 272 kts 190°
2026-04-22 10:53 29.93538 35.03971 8647 ft 270 kts 190°
2026-04-22 10:53 29.91693 35.03609 8456 ft 265 kts 190°
2026-04-22 10:53 29.89900 35.03257 8338 ft 258 kts 190°
2026-04-22 10:54 29.88153 35.02917 8082 ft 252 kts 190°
2026-04-22 10:54 29.86440 35.02588 7819 ft 246 kts 190°
2026-04-22 10:54 29.84767 35.02267 7575 ft 240 kts 190°
2026-04-22 10:54 29.83135 35.01954 7337 ft 237 kts 190°
2026-04-22 10:55 29.81492 35.01734 7094 ft 240 kts 180°
2026-04-22 10:55 29.79797 35.01801 6879 ft 249 kts 178°
2026-04-22 10:55 29.78072 35.01898 6647 ft 253 kts 178°
2026-04-22 10:55 29.76327 35.01985 6417 ft 242 kts 178°
2026-04-22 10:56 29.74694 35.01957 6160 ft 229 kts 189°
2026-04-22 10:56 29.73221 35.01598 6066 ft 209 kts 194°
2026-04-22 10:56 29.71874 35.01203 6019 ft 190 kts 195°
2026-04-22 10:56 29.70624 35.00833 6022 ft 183 kts 195°
2026-04-22 10:57 29.69391 35.00472 6023 ft 183 kts 195°
2026-04-22 10:57 29.68151 35.00115 6035 ft 184 kts 194°
2026-04-22 10:57 29.66904 34.99759 6036 ft 185 kts 194°
2026-04-22 10:57 29.65644 34.99404 6038 ft 188 kts 194°
2026-04-22 10:58 29.64370 34.99046 6035 ft 188 kts 195°
2026-04-22 10:58 29.63258 34.98334 6014 ft 183 kts 235°
2026-04-22 10:58 29.62961 34.96995 5995 ft 178 kts 280°
2026-04-22 10:58 29.63606 34.95844 5724 ft 176 kts 330°
2026-04-22 10:59 29.64770 34.95699 5383 ft 174 kts 21°
2026-04-22 10:59 29.65581 34.96670 5080 ft 172 kts 75°
2026-04-22 10:59 29.65453 34.97984 5062 ft 170 kts 108°
2026-04-22 10:59 29.65451 34.99346 4976 ft 173 kts 61°
2026-04-22 11:00 29.66369 35.00184 4948 ft 177 kts 11°
2026-04-22 11:00 29.67560 34.99958 4727 ft 174 kts 337°
2026-04-22 11:00 29.68725 34.99765 4656 ft 171 kts
2026-04-22 11:00 29.69870 34.99479 4432 ft 178 kts 332°
2026-04-22 11:01 29.71076 34.99332 4145 ft 174 kts 12°
2026-04-22 11:01 29.72240 34.99559 3851 ft 172 kts 355°
2026-04-22 11:01 29.73298 34.99015 3503 ft 168 kts 311°
2026-04-22 11:01 29.73694 34.97788 3347 ft 170 kts 267°
2026-04-22 11:02 29.73242 34.96525 3072 ft 177 kts 230°
2026-04-22 11:02 29.72379 34.95501 2734 ft 182 kts 225°
2026-04-22 11:02 29.71523 34.94538 2770 ft 159 kts 225°
2026-04-22 11:02 29.70739 34.93659 2933 ft 161 kts 224°
2026-04-22 11:03 29.69903 34.92746 3017 ft 169 kts 217°
2026-04-22 11:03 29.68798 34.92412 3061 ft 169 kts 180°
2026-04-22 11:03 29.67630 34.92382 3195 ft 168 kts 184°
2026-04-22 11:03 29.66461 34.92297 3331 ft 170 kts 185°
2026-04-22 11:04 29.65270 34.92189 3331 ft 171 kts 185°
2026-04-22 11:04 29.64089 34.92065 3313 ft 169 kts 186°
2026-04-22 11:04 29.62924 34.91924 3333 ft 168 kts 187°
2026-04-22 11:04 29.61759 34.91771 3342 ft 169 kts 187°
2026-04-22 11:05 29.60578 34.91608 3353 ft 173 kts 187°
2026-04-22 11:05 29.59376 34.91437 3339 ft 173 kts 188°
2026-04-22 11:05 29.58196 34.91267 3328 ft 169 kts 188°
2026-04-22 11:05 29.57034 34.91097 3325 ft 168 kts 188°
2026-04-22 11:06 29.55870 34.90926 3338 ft 169 kts 188°
2026-04-22 11:06 29.54668 34.90749 3037 ft 179 kts 188°
2026-04-22 11:06 29.53448 34.90573 2723 ft 180 kts 184°
2026-04-22 11:06 29.52260 34.91022 2338 ft 186 kts 135°
2026-04-22 11:07 29.51833 34.92349 2159 ft 177 kts 82°
2026-04-22 11:07 29.52254 34.93600 2131 ft 167 kts 62°
2026-04-22 11:07 29.52787 34.94731 2120 ft 157 kts 58°
2026-04-22 11:07 29.53588 34.95518 2135 ft 153 kts 17°
2026-04-22 11:08 29.54614 34.95921 2138 ft 158 kts 20°
2026-04-22 11:08 29.55650 34.96373 2164 ft 162 kts 20°
2026-04-22 11:08 29.56710 34.96788 2146 ft 158 kts 16°
2026-04-22 11:08 29.57787 34.97129 2141 ft 160 kts 14°
2026-04-22 11:09 29.58864 34.97443 2123 ft 158 kts 13°
2026-04-22 11:09 29.59922 34.97746 2115 ft 156 kts 13°
2026-04-22 11:09 29.60960 34.98045 2125 ft 154 kts 13°
2026-04-22 11:09 29.62004 34.98345 2100 ft 157 kts 13°
2026-04-22 11:10 29.63063 34.98649 1897 ft 158 kts 13°
2026-04-22 11:10 29.64124 34.98953 1693 ft 156 kts 13°
2026-04-22 11:10 29.65180 34.99257 1483 ft 154 kts 13°
2026-04-22 11:10 29.66198 34.99549 1290 ft 152 kts 13°
2026-04-22 11:11 29.67231 34.99845 1086 ft 153 kts 13°
2026-04-22 11:11 29.68261 35.00141 877 ft 152 kts 13°
2026-04-22 11:11 29.69278 35.00442 691 ft 151 kts 15°
2026-04-22 11:11 29.70307 35.00719 492 ft 151 kts 13°
2026-04-22 11:12 29.71324 35.01017 323 ft 151 kts 12°
2026-04-22 11:12 29.72244 35.01266 275 ft 82 kts 14°
2026-04-22 11:12 29.72725 35.01410 268 ft 62 kts 15°
2026-04-22 11:12 29.73023 35.01493 265 ft 28 kts 12°
2026-04-22 11:13 29.73212 35.01499 265 ft 27 kts 352°
2026-04-22 11:13 29.73283 35.01486 265 ft 0 kts 346°
2026-04-22 11:13 29.73286 35.01485 265 ft 0 kts 346°
2026-04-22 11:13 29.73290 35.01484 265 ft 1 kts 346°
2026-04-22 11:14 29.73293 35.01483 265 ft 1 kts 346°
2026-04-22 11:14 29.73296 35.01482 265 ft 0 kts 346°
2026-04-22 11:14 29.73303 35.01480 265 ft 6 kts 347°
2026-04-22 11:14 29.73368 35.01452 264 ft 9 kts 323°
2026-04-22 11:15 29.73386 35.01419 264 ft 2 kts 283°
2026-04-22 11:15 29.73382 35.01391 264 ft 4 kts 248°
2026-04-22 11:15 29.73343 35.01360 265 ft 10 kts 197°
2026-04-22 11:15 29.73233 35.01327 265 ft 22 kts 192°
2026-04-22 11:16 29.73052 35.01280 266 ft 32 kts 193°
2026-04-22 11:16 29.72959 35.01253 267 ft 13 kts 194°
2026-04-22 11:16 29.72851 35.01183 268 ft 15 kts 245°
2026-04-22 11:16 29.72856 35.01077 268 ft 18 kts 283°
2026-04-22 11:17 29.72848 35.00996 268 ft 1 kts 241°
2026-04-22 11:17 29.72814 35.00977 269 ft 11 kts 199°
2026-04-22 11:17 29.72786 35.00966 269 ft 1 kts 197°
2026-04-22 11:17 29.72735 35.00952 269 ft 14 kts 193°
2026-04-22 11:18 29.72687 35.00939 270 ft 0 kts 192°
2026-04-22 11:18 29.72677 35.00937 270 ft 2 kts 193°
2026-04-22 11:18 29.72664 35.00932 270 ft 1 kts 206°
2026-04-22 11:18 29.72662 35.00926 273 ft 1 kts 242°
2026-04-22 11:19 29.72659 35.00893 270 ft 6 kts 281°
2026-04-22 11:19 29.72670 35.00840 273 ft 5 kts 285°
2026-04-22 11:19 29.72671 35.00833 272 ft 1 kts 283°
2026-04-22 11:19 29.72674 35.00821 272 ft 0 kts 282°